{"data":{"norad_id":68503,"intl_designator":"2026-067CR","name":"FLYLAB2","alt_names":[],"object_type":"PAYLOAD","status":"ACTIVE","operator":null,"country":"FR","launch_date":"2026-03-30","launch_site_code":"AFWTR","launch_vehicle":null,"mission":null,"orbit_class":"UNKNOWN","rcs_meters":null,"size_class":null,"mass_kg":null,"dimensions":null,"purposes":[],"wikipedia_slug":null,"has_3d_model":false,"image_url":null,"decayed_at":null,"tle_current":{"epoch":"2026-05-25T03:33:51.278688Z","epoch_age_seconds":58875,"freshness":"FRESH","line1":"1 68503U 26067CR  26145.14851017  .00001604  00000+0  16928-3 0  9997","line2":"2 68503  97.7559 103.6505 0006413 125.8171 234.3644 14.90651421  8282","mean_motion":14.90651421,"eccentricity":0.0006413,"inclination_deg":97.7559,"raan_deg":103.6505,"arg_perigee_deg":125.8171,"mean_anomaly_deg":234.3644,"bstar":0.00016928,"rev_number":828,"period_min":96.602061334633,"perigee_km":591.43068302515,"apogee_km":600.37558690225,"semimajor_km":6974.0401349637,"source":"CELESTRAK","updated_at":"2026-05-25T13:38:07.879743Z"}}}